Weather in Mirnoe

Russia / Khabarovsk Krai     48°29′16″N   135°13′29″E
temp.,
°C
wind,
m/s
gust,
m/s
humid.,
%
clouds,
%
prec.,
mm/h
press.,
hPa
HPBL,
m
16 june, wed
wed1601:00+16s228148 0.0 100711
04:00+15s228320 0.0 100614
07:00+18s368543 0.0 1008181
10:00+22sw466727 0.0 1008844
13:00+25ssw45622 0.0 10061034
16:00+26w35666 0.0 10051065
19:00+26wsw35740 0.0 1005253
22:00+20ssw22850 0.0 100515
17 june, thu
thu1701:00+18sse33900 0.0 100535
04:00+17s34910 0.0 100450
07:00+19sse248594 0.0 1004129
10:00+24s4669100 0.0 1004653
13:00+26ssw4662100 0.0 10031083
16:00+27wsw4661100 0.0 1001870
19:00+23wsw2573100 0.0 1001141
22:00+19se2283100 0.0 100225
18 june, fri
fri1801:00+18s2279100 0.0 100224
04:00+16w2388100 0.0 100247
07:00+18ene1188100 0.0 100158
10:00+22ese2373100 0.0 1000479
13:00+25ese3464100 0.0 9991118
16:00+27ene2251100 0.0 997923
19:00+24nw3474100 0.0 997109
22:00+19wsw3589100 0.6 99873
19 june, sat
sat1901:00+17w3592100 0.2 1000100
04:00+14w229391 0.2 100114
07:00+16e018727 0.0 1003109
10:00+20ne4571100 0.0 1003695
13:00+23ne5752100 0.0 10021414
16:00+22nne6862100 0.0 1001913
19:00+20ene4976100 0.0 1002371
22:00+19ese71337100 0.0 1003454
20 june, sun
sun2001:00+16ese3650100 0.1 1003130
04:00+14e2361100 0.1 100469
07:00+14se2372100 0.0 1004119
10:00+18se2258100 0.0 1005631
13:00+20e2258100 0.0 10041130
16:00+21ene2257100 0.0 10031273
19:00+20se116798 0.0 1003744
22:00+15w118237 0.0 100411